Location: Newark
(36.7344°N, 137.0547°E)
Time: 07:28:49
(UTC+00:00)

ISS - Visible Passes

Search period start: 16 October 2019 00:00
Search period end: 26 October 2019 00:00
Orbit: 411 x 421 km, 51.6° (Epoch: 16 October)

Date Brightness Start Highest point End Pass type
(mag) Time Alt. Az. Time Alt. Az. Time Alt. Az.
22 Oct -1.6 20:16:05 10° SSW 20:19:00 27° SE 20:21:54 10° ENE visible
23 Oct -0.8 19:28:34 10° SSE 19:30:35 15° SE 19:32:37 10° E visible
24 Oct -3.8 20:15:05 10° SW 20:18:26 88° NW 20:21:49 10° NE visible
25 Oct -2.9 19:29:11 39° S 19:29:56 47° SE 19:33:11 10° ENE visible
